Date,TemperatureHighF,TemperatureAvgF,TemperatureLowF,DewpointHighF,DewpointAvgF,DewpointLowF,HumidityHigh,HumidityAvg,HumidityLow,PressureMaxIn,PressureMinIn,WindSpeedMaxMPH,WindSpeedAvgMPH,GustSpeedMaxMPH,PrecipitationSumIn
2013-3-1,36.1,31.0,26.8,30.5,26.1,20.8,89,82,72,29.82,29.62,14,4,14,0.00
2013-3-2,27.0,23.3,18.3,21.3,17.6,13.3,85,79,71,29.82,29.77,13,5,13,0.00
2013-3-3,27.0,21.1,17.2,18.1,15.4,13.1,85,79,65,29.79,29.73,16,5,16,0.00
2013-3-4,26.4,23.4,21.0,22.3,19.3,17.0,88,84,76,29.94,29.77,18,6,18,0.00
2013-3-5,39.6,27.7,21.0,24.5,20.4,16.3,88,75,54,30.05,29.92,10,2,10,0.00
2013-3-6,43.9,33.4,22.8,29.4,24.1,18.3,85,69,53,30.10,29.97,18,3,18,0.00
2013-3-7,37.8,32.4,26.4,25.2,22.7,19.4,87,68,53,30.16,30.08,10,2,10,0.00
2013-3-8,40.6,29.2,25.5,25.9,22.8,19.2,88,78,52,30.31,30.13,16,2,16,0.00
2013-3-9,47.3,31.9,18.7,27.6,21.6,14.8,86,68,43,30.34,30.25,11,2,11,0.00
2013-3-10,55.6,42.0,25.2,27.9,23.9,19.1,79,51,32,30.27,30.07,14,4,14,0.00
2013-3-11,48.4,45.1,40.6,38.7,30.5,26.0,70,57,46,30.13,29.82,24,6,24,0.00
2013-3-12,49.8,40.7,31.8,43.8,36.1,28.4,88,84,69,29.87,29.75,22,4,22,0.00
2013-3-13,41.2,32.1,25.2,29.3,25.9,19.6,87,79,52,29.88,29.77,16,3,16,0.00
2013-3-14,25.5,22.5,16.9,20.1,13.9,9.8,85,70,52,29.94,29.82,17,8,17,0.00
2013-3-15,33.6,25.1,9.3,29.8,18.3,3.5,87,76,57,29.95,29.63,15,4,15,0.00
2013-3-16,33.1,22.2,13.6,18.9,11.8,6.9,77,65,41,29.91,29.78,11,3,11,0.00
2013-3-17,31.3,20.8,9.3,13.7,8.0,1.6,81,59,29,30.29,29.90,18,4,18,0.00
2013-3-18,32.7,22.0,6.6,23.0,9.1,-0.5,86,60,37,30.35,29.89,27,5,27,0.00
2013-3-19,37.2,29.0,23.7,31.9,24.9,19.4,88,85,77,29.89,29.65,24,5,24,0.00
2013-3-20,34.9,26.3,20.5,25.5,18.9,15.5,84,74,51,29.77,29.73,17,5,17,0.00
2013-3-21,36.1,23.4,7.9,16.6,11.4,4.0,85,63,37,29.77,29.65,16,3,16,0.00
2013-3-22,30.6,26.2,22.5,24.6,20.8,14.2,88,80,63,29.81,29.64,16,4,16,0.00
2013-3-23,37.9,30.0,24.6,24.6,22.5,19.8,88,74,52,29.90,29.77,14,6,14,0.00
2013-3-24,43.5,33.6,28.2,23.4,21.6,19.6,74,62,42,29.90,29.73,13,4,13,0.00
2013-3-25,47.1,35.5,25.0,25.7,22.1,18.0,76,59,42,29.73,29.53,10,2,10,0.00
2013-3-26,46.8,37.1,30.0,29.0,22.9,17.8,79,58,39,29.87,29.61,17,4,17,0.00
2013-3-27,45.3,36.1,28.0,32.1,27.0,22.0,83,70,53,29.97,29.84,15,4,15,0.00
2013-3-28,49.3,37.7,32.2,34.1,30.1,28.3,88,75,52,30.13,29.95,16,4,16,0.00
2013-3-29,43.5,37.3,34.5,33.7,29.1,24.8,81,72,60,30.14,30.07,11,3,11,0.00
2013-3-30,51.6,37.0,24.6,32.5,24.0,16.6,87,63,34,30.15,30.06,22,3,22,0.00
2013-3-31,52.9,40.7,25.2,37.9,28.2,16.7,86,63,39,30.06,29.66,23,5,23,0.00